Provincetown, Massachusetts, United States (02657)
Lat: 42.06N, Lon: 70.18W
Wx Zone: MAZ022
Local Info
Past Weather Observations for Today

NOTE: This archive is for the closest National Weather Service station to Provincetown. Information may differ from the station used for current weather conditions.

Click here for Long-term Archive

Time Weather Temperature Dewpoint Humidity Pressure Winds Precip Visibility
21:56
Clear
52°F / 11°C 34°F / 1°C 50% 30.06 in
(1018 mb)
W 6.9 mph
(W 11 kph)
- 10SM
20:56
Clear
52°F / 11°C 36°F / 2°C 54% 30.06 in
(1018 mb)
W 8.1 mph
(W 13 kph)
- 10SM
19:56
Clear
52°F / 11°C 36°F / 2°C 54% 30.01 in
(1016 mb)
SSW 9.2 mph
(SSW 15 kph)
- 10SM
18:56
Clear
54°F / 12°C 34°F / 1°C 47% 30.01 in
(1016 mb)
SSW 10.4 mph
(SSW 17 kph)
- 10SM
17:56
Partly Cloudy
54°F / 12°C 39°F / 4°C 58% 29.98 in
(1015 mb)
SW 9.2 mph
(SW 15 kph)
- 10SM
16:56
Mostly Cloudy
54°F / 12°C 41°F / 5°C 63% 29.98 in
(1015 mb)
SW 9.2 mph
(SW 15 kph)
- 10SM
15:56
Partly Cloudy
55°F / 13°C 43°F / 6°C 63% 29.92 in
(1013 mb)
SW 6.9 mph
(SW 11 kph)
- 10SM
14:56
Partly Cloudy
57°F / 14°C 46°F / 8°C 67% 29.95 in
(1014 mb)
SW 9.2 mph
(SW 15 kph)
- 10SM
13:56
Clear
57°F / 14°C 52°F / 11°C 82% 29.92 in
(1013 mb)
S 8.1 mph
(S 13 kph)
- 9SM
12:56
Clear
61°F / 16°C 54°F / 12°C 77% 29.92 in
(1013 mb)
SSE 8.1 mph
(SSE 13 kph)
- 9SM
11:56
Clear
59°F / 15°C 54°F / 12°C 82% 29.92 in
(1013 mb)
Calm - 7SM
10:56
Clear
Fog And Mist
59°F / 15°C 55°F / 13°C 88% 29.92 in
(1013 mb)
SW 9.2 mph
(SW 15 kph)
- 6SM
09:56
Mostly Cloudy
Fog And Mist
57°F / 14°C 55°F / 13°C 94% 29.92 in
(1013 mb)
SW 11.5 mph
(SW 19 kph)
- 5SM
09:47
Mostly Cloudy
Fog And Mist
57°F / 14°C 55°F / 13°C 94% 29.92 in
(1013 mb)
SSE 9.2 mph
(SSE 15 kph)
- 4SM
08:56
Clear
Fog And Mist
61°F / 16°C 57°F / 14°C 88% 29.89 in
(1012 mb)
SSE 4.6 mph
(SSE 7 kph)
- 5SM
08:03
Overcast
Fog And Mist
57°F / 14°C 55°F / 13°C 94% 29.89 in
(1012 mb)
SW 9.2 mph
(SW 15 kph)
- 2 1/2SM
07:56
Overcast
Fog And Mist
57°F / 14°C 55°F / 13°C 94% 29.89 in
(1012 mb)
SSE 8.1 mph
(SSE 13 kph)
- 3SM
06:56
Overcast
Fog And Mist
59°F / 15°C 57°F / 14°C 94% 29.86 in
(1011 mb)
SSW 11.5 mph
(SSW 19 kph)
- 4SM
05:56
Overcast
Fog And Mist
61°F / 16°C 57°F / 14°C 88% 29.83 in
(1010 mb)
SSW 11.5 mph
(SSW 19 kph)
- 4SM
05:43
Overcast
Fog And Mist
61°F / 16°C 57°F / 14°C 88% 29.8 in
(1009 mb)
SSW 15 mph
(SSW 24 kph)
- 4SM
05:33
Overcast
Fog And Mist
61°F / 16°C 57°F / 14°C 88% 29.83 in
(1010 mb)
SSW 19.6 mph
(SSW 32 kph)
- 2 1/2SM
05:25
Overcast
Fog And Mist
59°F / 15°C 57°F / 14°C 94% 29.83 in
(1010 mb)
SW 20.7 mph
(SW 33 kph)
- 1 3/4SM
05:17
Overcast
Fog And Mist
61°F / 16°C 57°F / 14°C 88% 29.83 in
(1010 mb)
SW 18.4 mph
(SW 30 kph)
- 2SM
04:56
Overcast
Fog And Mist
61°F / 16°C 59°F / 15°C 94% 29.8 in
(1009 mb)
SW 17.3 mph
(SW 28 kph)
- 4SM
04:27
Overcast
Fog And Mist
61°F / 16°C 59°F / 15°C 94% 29.77 in
(1008 mb)
SW 18.4 mph
(SW 30 kph)
- 3SM
03:56
Overcast
Fog And Mist
61°F / 16°C 57°F / 14°C 88% 29.77 in
(1008 mb)
SW 17.3 mph
(SW 28 kph)
- 1SM
03:26
Overcast
Fog And Mist
61°F / 16°C 59°F / 15°C 94% 29.77 in
(1008 mb)
SW 20.7 mph
(SW 33 kph)
- 1 3/4SM
03:08
Overcast
Fog And Mist
61°F / 16°C 59°F / 15°C 94% 29.77 in
(1008 mb)
SW 20.7 mph
(SW 33 kph)
- 2SM
02:56
Overcast
Fog And Mist
61°F / 16°C 59°F / 15°C 94% 29.77 in
(1008 mb)
SW 21.9 mph
(SW 35 kph)
- 3SM
02:54
Overcast
Fog And Mist
61°F / 16°C 59°F / 15°C 94% 29.77 in
(1008 mb)
SW 19.6 mph
(SW 32 kph)
- 3SM
02:38
Overcast
Fog And Mist
61°F / 16°C 59°F / 15°C 94% 29.77 in
(1008 mb)
SW 19.6 mph
(SW 32 kph)
- 5SM
02:07
Overcast
Fog And Mist
61°F / 16°C 59°F / 15°C 94% 29.77 in
(1008 mb)
SW 23 mph
(SW 37 kph)
- 5SM
01:56
Overcast
Fog And Mist
61°F / 16°C 59°F / 15°C 94% 29.77 in
(1008 mb)
SW 21.9 mph
(SW 35 kph)
- 4SM
00:56
Overcast
Fog And Mist
61°F / 16°C 59°F / 15°C 94% 29.77 in
(1008 mb)
SW 23 mph
(SW 37 kph)
0.00 in
(0.00 mm)
5SM
00:39
Overcast
Fog And Mist
63°F / 17°C 61°F / 16°C 94% 29.74 in
(1007 mb)
SW 21.9 mph
(SW 35 kph)
0.00 in
(0.00 mm)
6SM
00:16
Overcast
Light Rain
63°F / 17°C 61°F / 16°C 94% 29.74 in
(1007 mb)
SW 24.2 mph
(SW 39 kph)
0.00 in
(0.00 mm)
4SM
Time Weather Temperature Dewpoint Humidity Pressure Winds Precip Visibility


Weather for websites

WeatherForYou.com, LLC is not responsible for any damages or problems caused by this service. Current weather conditions are obtained from the closest station including government and personal stations which may have varying degrees of accuracy. Weather forecasts are derived from the NOAA NDFD. Like all things, this site belongs to Jesus Christ... He just trusts me to maintain it. If you have any questions or comments email webmaster@weatherforyou.com

Copyright © 2014, WeatherForYou.com LLC. All rights reserved.